This demonstration page uses our WeatherBlox Daily Observations layout. Learn more.

Left ArrowRight Arrow

38.20091, -84.87328

Hourly Observations for August 19, 2018

Temp ( °F °C ) Dew Point ( °F °C ) Humidity (%) Winds ( mph kmh ) Pressure ( in mb ) Visibility ( mi km ) Precip ( " mm )
12:00 am 00:00 Mostly Clear with Mist and Fog 71 21.7 70 21.1 96 96 Calm 29.91 1013 3 4 0.00 0.00
12:15 am 00:15 Mostly Clear with Mist and Fog 70 21.1 69 20.6 97 97 Calm 29.91 1013 4 6 0.00 0.00
12:53 am 00:53 Clear with Mist and Fog 70 21.1 69 20.6 97 97 Calm 29.91 1013 4 6 0.00 0.00
1:07 am 01:07 Clear with Mist and Fog 70 21.1 69 20.6 97 97 Calm 29.91 1013 2 3 0.00 0.00
1:10 am 01:10 Clear with Mist and Fog 70 21.1 68 20 93 93 Calm 29.91 1013 1 1 0.00 0.00
1:27 am 01:27 Mostly Cloudy with Mist and Fog 69 20.6 68 20 96 96 Calm 29.91 1013 2 2 0.00 0.00
1:29 am 01:29 Mostly Cloudy with Mist and Fog 70 21.1 68 20 93 93 Calm 29.91 1013 4 6 0.00 0.00
1:53 am 01:53 Partly Cloudy with Mist and Fog 69 20.6 68 20 96 96 NNW 5 7 29.91 1013 6 10 0.00 0.00
2:03 am 02:03 Partly Cloudy with Mist and Fog 69 20.6 68 20 96 96 NNW 3 6 29.91 1013 3 4 0.00 0.00
2:06 am 02:06 Mostly Cloudy with Mist and Fog 69 20.6 68 20 96 96 N 3 6 29.91 1013 2 3 0.00 0.00
2:26 am 02:26 Mostly Cloudy with Mist and Fog 69 20.6 68 20 96 96 Calm 29.91 1013 2 3 0.00 0.00
2:29 am 02:29 Mostly Cloudy with Mist and Fog 69 20.6 68 20 96 96 Calm 29.91 1013 1 1 0.00 0.00
2:38 am 02:38 Mostly Clear with Mist and Fog 69 20.6 68 20 96 96 Calm 29.91 1013 2 2 0.00 0.00
2:40 am 02:40 Mostly Clear with Mist and Fog 69 20.6 68 20 96 96 Calm 29.91 1013 3 5 0.00 0.00
2:53 am 02:53 Clear with Mist and Fog 69 20.6 68 20 96 96 Calm 29.91 1013 3 4 0.00 0.00
2:59 am 02:59 Mostly Cloudy with Mist and Fog 68 20 67 19.4 96 96 Calm 29.91 1013 1 2 0.00 0.00
3:06 am 03:06 Clear with Fog 68 20 67 19.4 96 96 SW 3 6 29.91 1013 1 1 0.00 0.00
3:13 am 03:13 Mostly Cloudy with Mist and Fog 69 20.6 67 19.4 93 93 Calm 29.91 1013 1 2 0.00 0.00
3:20 am 03:20 Partly Cloudy with Mist and Fog 68 20 68 20 100 100 Calm 29.91 1013 1 1 0.00 0.00
3:30 am 03:30 Mostly Cloudy with Mist and Fog 69 20.6 68 20 96 96 Calm 29.91 1013 1 2 0.00 0.00
3:36 am 03:36 Cloudy with Mist and Fog 69 20.6 68 20 96 96 Calm 29.91 1013 1 2 0.00 0.00
3:43 am 03:43 Cloudy with Fog 69 20.6 68 20 96 96 Calm 29.88 1012 0 0 0.00 0.00
3:53 am 03:53 Mostly Cloudy with Fog 68 20 67 19.4 96 96 Calm 29.91 1013 1 1 0.00 0.00
4:27 am 04:27 Mostly Clear with Mist and Fog 68 20 67 19.4 96 96 Calm 29.88 1012 1 2 0.00 0.00
4:38 am 04:38 Mostly Cloudy with Mist and Fog 67 19.4 66 18.9 97 97 Calm 29.88 1012 1 1 0.00 0.00
4:53 am 04:53 Mostly Cloudy with Fog 68 20 67 19.4 96 96 Calm 29.90 1013 0 0 0.00 0.00
5:53 am 05:53 Mostly Cloudy with Fog 68 20 67 19.4 96 96 Calm 29.90 1013 0 0 0.00 0.00
6:53 am 06:53 Mostly Cloudy with Fog 67 19.4 66 18.9 97 97 NW 3 6 29.92 1013 0 0 0.00 0.00
7:53 am 07:53 Mostly Cloudy with Fog 68 20 68 20 100 100 Calm 29.93 1014 5 8 0.00 0.00
8:35 am 08:35 Cloudy with Mist and Fog 70 21.1 69 20.6 97 97 Calm 29.94 1014 1 2 0.00 0.00
8:40 am 08:40 Cloudy with Mist and Fog 70 21.1 69 20.6 97 97 E 5 7 29.94 1014 3 5 0.00 0.00
8:53 am 08:53 Mostly Cloudy with Mist and Fog 70 21.1 69 20.6 97 97 NE 3 6 29.94 1014 6 10 0.00 0.00
9:45 am 09:45 Cloudy 73 22.8 69 20.6 87 87 Calm 29.94 1014 10 16 0.00 0.00
9:53 am 09:53 Cloudy 73 22.8 70 21.1 90 90 Calm 29.95 1014 10 16 0.00 0.00
10:00 am 10:00 Cloudy 74 23.3 70 21.1 88 88 ESE 3 6 29.94 1014 10 16 0.00 0.00
10:53 am 10:53 Cloudy 75 23.9 70 21.1 84 84 Calm 29.96 1015 10 16 0.00 0.00
11:17 am 11:17 Partly Cloudy 78 25.6 71 21.7 79 79 ENE 5 7 29.94 1014 10 16 0.00 0.00
11:51 am 11:51 Mostly Cloudy 81 27 72 22 74 74 VRB 3 6 29.94 1014 10 16 0.00 0.00
11:53 am 11:53 Mostly Cloudy 80 26.7 71 21.7 74 74 ESE 5 7 29.96 1015 10 16 0.00 0.00
12:11 pm 12:11 Mostly Cloudy 80 26.7 71 21.7 74 74 Calm 29.94 1014 10 16 0.00 0.00
12:26 pm 12:26 Partly Cloudy 81 27.2 71 21.7 72 72 VRB 3 6 29.94 1014 10 16 0.00 0.00
12:37 pm 12:37 Mostly Cloudy 83 28.3 71 21.7 67 67 VRB 5 7 29.94 1014 10 16 0.00 0.00
12:50 pm 12:50 Partly Cloudy 81 27 70 21 70 70 Calm 29.94 1014 10 16 0.00 0.00
12:53 pm 12:53 Partly Cloudy 82 27.8 71 21.7 69 69 Calm 29.96 1014 10 16 0.00 0.00
1:00 pm 13:00 Mostly Cloudy 83 28.3 71 21.7 67 67 N 6 9 29.94 1014 10 16 0.00 0.00
1:11 pm 13:11 Mostly Cloudy 81 27.2 70 21.1 69 69 NNW 3 6 29.94 1014 10 16 0.00 0.00
1:53 pm 13:53 Sunny 83 28.3 69 20.6 63 63 SE 3 6 29.95 1014 10 16 0.00 0.00
2:53 pm 14:53 Mostly Sunny 84 28.9 69 20.6 61 61 VRB 6 9 29.94 1014 10 16 0.00 0.00
3:53 pm 15:53 Sunny 85 29.4 66 18.9 53 53 VRB 3 6 29.93 1014 10 16 0.00 0.00
4:53 pm 16:53 Sunny 87 30.6 68 20 53 53 NNW 7 11 29.91 1013 10 16 0.00 0.00
5:53 pm 17:53 Mostly Cloudy 86 30 69 20.6 57 57 VRB 5 7 29.90 1013 10 16 0.00 0.00
6:53 pm 18:53 Partly Cloudy 85 29.4 69 20.6 59 59 N 3 6 29.90 1013 10 16 0.00 0.00
7:53 pm 19:53 Mostly Cloudy 83 28.3 70 21.1 65 65 NNE 5 7 29.91 1013 10 16 0.00 0.00
8:53 pm 20:53 Partly Cloudy 79 26.1 71 21.7 77 77 ENE 3 6 29.92 1013 10 16 0.00 0.00
9:53 pm 21:53 Mostly Clear 76 24.4 70 21.1 82 82 ENE 6 9 29.93 1014 10 16 0.00 0.00
10:53 pm 22:53 Mostly Clear 75 23.9 70 21.1 84 84 ENE 5 7 29.95 1014 10 16 0.00 0.00
11:53 pm 23:53 Mostly Cloudy 75 23.9 70 21.1 84 84 ESE 3 6 29.95 1014 10 16 0.00 0.00

Powered by AerisWeather